Flag for Italy Weather past 2 weeks in Bologna, Italy

63 °F


Feels Like: 63 °F
Forecast: 59 / 68 °F
Wind: 2 mph from North

Location: Bologna / Borgo Panigale

Current Time: Oct 6, 2015 at 6:43:52 PM

Latest Report: Oct 6, 2015 at 5:50 PM

Visibility: 2 mi

Pressure: 29.83 "Hg

Humidity: 94%

Dew point: 61 °F

Location of BolognaLocation

Historic Weather in Bologna — Graph


Bologna temperature yesterday

Maximum temperature yesterday: 72 °F (at 1:20 PM)
Minimum temperature yesterday: 59 °F (at 4:50 AM)
Average temperature yesterday: 65 °F

Past Weeks' High & Low Weather Summary

High77 °F (Sep 21, 5:20 PM)100% (Oct 2, 2:20 PM)30.33 "Hg (Oct 2, 2:20 PM)
Low52 °F (Oct 1, 3:20 AM)38% (Sep 28, 12:20 PM)29.59 "Hg (Sep 23, 7:50 AM)
Average62 °F72%30.07 "Hg
* Reported Sep 21 5:20 PM — Oct 6 5:20 PM, Bologna, Weather by CustomWeather, © 2015

Note: Actual official high and low records may vary slightly from our data, if they occured in-between our weather recording intervals... More about our weather records


Bologna weather history for previous 24 hours

Time TempWeatherWind HumidityBarometerVisibility
5:20 PM
Tue, Oct 6
63 °FFog.3 mph94%29.83 "Hg2 mi
4:50 PM63 °FFog.2 mph94%29.83 "Hg3 mi
4:20 PM63 °FFog.2 mph94%29.83 "Hg2 mi
3:50 PM63 °FFog.2 mph94%29.83 "Hg2 mi
3:20 PM63 °FFog.2 mph94%29.83 "Hg2 mi
2:50 PM63 °FFog.2 mph94%29.83 "Hg2 mi
2:20 PM63 °FFog.2 mph94%29.86 "Hg2 mi
1:50 PM63 °FFog.3 mph94%29.86 "Hg2 mi
1:20 PM63 °FFog.2 mph94%29.86 "Hg2 mi
12:50 PM63 °FFog.3 mph94%29.86 "Hg1 mi
12:20 PM61 °FFog.2 mph100%29.86 "Hg1 mi
11:50 AM61 °FDrizzle. Fog.3 mph100%29.89 "Hg1 mi
11:20 AM61 °FFog.3 mph100%29.89 "Hg2 mi
10:50 AM61 °FFog.2 mph94%29.89 "Hg2 mi
10:20 AM61 °FFog.2 mph100%29.89 "Hg2 mi
9:50 AM61 °FFog.5 mph100%29.89 "Hg2 mi
9:20 AM61 °FFog.3 mph100%29.89 "Hg2 mi
8:50 AM61 °FFog.5 mph100%29.89 "Hg2 mi
8:20 AM61 °FFog.3 mph100%29.89 "Hg1 mi
7:50 AM61 °FFog.2 mph100%29.89 "Hg1 mi
7:20 AM61 °FFog.3 mph100%29.89 "Hg2 mi
6:50 AM63 °FDrizzle. Fog.7 mph94%29.89 "Hg3 mi
6:20 AM63 °FDrizzle. Fog.2 mph100%29.89 "Hg1 mi
5:50 AM63 °FRain. Fog.2 mph100%29.89 "Hg1 mi
5:20 AM63 °FFog.2 mph100%29.89 "Hg1 mi
4:50 AM63 °FFog.1 mph100%29.89 "Hg1 mi
4:20 AM63 °FFog.2 mph100%29.89 "Hg1 mi
2:20 AM63 °FFog.2 mph100%29.92 "Hg1 mi
1:20 AM63 °FFog.5 mph94%29.95 "Hg3 mi
12:50 AM63 °FDrizzle. Fog.5 mph94%29.95 "Hg3 mi
12:20 AM64 °FRain. Passing clouds.2 mph88%29.95 "Hg4 mi
11:50 PM
Mon, Oct 5
64 °FPassing clouds.5 mph88%29.95 "Hg4 mi
10:50 PM66 °FPassing clouds.5 mph83%29.95 "Hg4 mi
10:20 PM66 °FPassing clouds.5 mph83%29.98 "HgN/A
9:50 PM66 °FPassing clouds.2 mph83%29.98 "HgN/A
9:20 PM66 °FPassing clouds.2 mph83%29.95 "HgN/A
8:50 PM66 °FPassing clouds.2 mph83%29.95 "HgN/A
8:20 PM68 °FPassing clouds.6 mph73%29.95 "HgN/A
7:50 PM66 °FPassing clouds.3 mph78%29.98 "HgN/A
7:20 PM68 °FPartly sunny.3 mph73%29.95 "HgN/A
6:50 PM68 °FPartly sunny.5 mph73%29.95 "HgN/A
6:20 PM70 °FPartly sunny.5 mph69%29.95 "HgN/A
Weather by CustomWeather, © 2015

See weather overviewHow to use our weather pages